Location: Westminster
(33.3626°N, 96.4619°W)
Time: 14:04:28
(UTC+00:00)

Cosmos 1763 Rocket - Pass Details

Date: 03 July 2022
Orbit: 732 x 780 km, 74.0° (Epoch: 18 August)

Event Time Altitude Azimuth Distance (km) Brightness Sun altitude
Exits shadow 08:41:35 17° 296° (WNW) 1,881 5.4 -25.6°
Maximum altitude 08:41:42 17° 298° (WNW) 1,881 5.4 -25.6°
Drops below altitude 10° 08:45:00 10° 337° (NNW) 2,311 6.4 -25.2°
Sets 08:48:17 0° 358° (N) 3,250 7.5 -24.8°
